Weather History for Athens, GA

Change the Weather History Date:

Thursday, April 18, 2013

  Actual Average Record
Temperature  
Mean Temperature 70 °F 62 °F  
Max Temperature 83 °F 75 °F 90 °F (1942)
Min Temperature 57 °F 50 °F 32 °F (1936)
Degree Days  
Heating Degree Days 0 4  
Month to date heating degree days 80 107  
Since 1 July heating degree days 2587 2702  
Cooling Degree Days 5 2  
Month to date cooling degree days 37 20  
Year to date cooling degree days 42 31  
Growing Degree Days 20 (Base 50)    
Moisture  
Dew Point 61 °F    
Average Humidity 73    
Maximum Humidity 100    
Minimum Humidity 46    
Precipitation  
Precipitation 0.00 in 0.10 in 1.50 in (1924)
Month to date precipitation 1.57 1.92  
Year to date precipitation 17.25 14.88  
Snow  
Snow 0.00 in 0.00 in 0.00 in (2002)
Month to date snowfall 0.0 0.1  
Since 1 July snowfall 0.0 3.0  
Snow Depth 0.00 in    
Sea Level Pressure  
Sea Level Pressure 30.06 in    
Wind  
Wind Speed 5 mph (SE)    
Max Wind Speed 10 mph    
Max Gust Speed 18 mph    
Visibility 8 miles    
Events      
T = Trace of Precipitation, MM = Missing Value Source: NWS Daily Summary

Daily Weather History Graph

Daily Weather History Graph

Search for Another Location

Airport:

Trip Planner

Search our weather history database for the weather conditions in past years. The results will help you decide how hot, cold, wet, or windy it might be!

Date:

Astronomy

Apr. 18, 2013 Rise Set
Actual Time 6:58 AM EDT 8:07 PM EDT
Civil Twilight 6:32 AM EDT 8:33 PM EDT
Nautical Twilight 6:01 AM EDT 9:03 PM EDT
Astronomical Twilight 5:30 AM EDT 9:35 PM EDT
Moon 1:12 PM EDT (4/18) 2:17 AM EDT (4/18)
Length of Visible Light 14h 00m
Length of Day
13h 08m
First Quarter, 51% of the Moon is Illuminated
Apr 18
First Quarter
Apr 25
Full
May 2
Last Quarter
May 9
New
May 18
First Quarter

Hourly Weather History & Observations

Time (EDT) Temp. Heat Index Dew Point Humidity Pressure Visibility Wind Dir Wind Speed Gust Speed Precip Events Conditions
12:51 AM 63.0 °F - 62.1 °F 97% 30.09 in 5.0 mi East 8.1 mph - N/A   Clear
1:51 AM 64.0 °F - 62.1 °F 93% 30.06 in 6.0 mi SE 5.8 mph - N/A   Clear
2:51 AM 63.0 °F - 61.0 °F 93% 30.07 in 8.0 mi East 3.5 mph - N/A   Clear
3:51 AM 61.0 °F - 59.0 °F 93% 30.08 in 6.0 mi Calm Calm - N/A   Clear
4:51 AM 60.1 °F - 59.0 °F 96% 30.09 in 4.0 mi East 3.5 mph - N/A   Partly Cloudy
5:51 AM 59.0 °F - 57.9 °F 96% 30.09 in 5.0 mi East 4.6 mph - N/A   Clear
6:51 AM 57.9 °F - 57.0 °F 97% 30.10 in 4.0 mi East 5.8 mph - N/A   Clear
7:16 AM 57.2 °F - 57.2 °F 100% 30.11 in 2.5 mi East 6.9 mph - N/A   Clear
7:23 AM 57.2 °F - 57.2 °F 100% 30.12 in 3.0 mi East 5.8 mph - N/A   Clear
7:51 AM 61.0 °F - 59.0 °F 93% 30.12 in 5.0 mi ESE 4.6 mph - N/A   Clear
8:51 AM 64.9 °F - 60.1 °F 84% 30.11 in 7.0 mi SE 4.6 mph - N/A   Clear
9:40 AM 68.0 °F - 60.8 °F 78% 30.13 in 8.0 mi Variable 4.6 mph - N/A   Mostly Cloudy
9:51 AM 69.1 °F - 62.1 °F 78% 30.12 in 8.0 mi Variable 5.8 mph - N/A   Mostly Cloudy
10:51 AM 68.0 °F - 63.0 °F 84% 30.12 in 8.0 mi Variable 4.6 mph - N/A   Overcast
11:46 AM 71.6 °F - 62.6 °F 73% 30.13 in 9.0 mi Variable 3.5 mph - N/A   Overcast
11:51 AM 73.4 °F - 64.4 °F 73% 30.13 in 9.0 mi South 4.6 mph - N/A   Overcast
12:35 PM 73.4 °F - 62.6 °F 69% 30.11 in 9.0 mi Variable 5.8 mph - N/A   Mostly Cloudy
12:51 PM 77.0 °F - 63.0 °F 62% 30.09 in 10.0 mi Variable 3.5 mph - N/A   Partly Cloudy
1:51 PM 73.9 °F - 62.1 °F 66% 30.06 in 9.0 mi Calm Calm - N/A   Mostly Cloudy
2:51 PM 75.9 °F - 61.0 °F 60% 30.04 in 10.0 mi Variable 4.6 mph - N/A   Mostly Cloudy
3:51 PM 82.0 °F 82.1 °F 59.0 °F 45% 30.00 in 10.0 mi SSE 6.9 mph - N/A   Mostly Cloudy
4:51 PM 82.0 °F 82.1 °F 59.0 °F 45% 29.97 in 10.0 mi South 6.9 mph - N/A   Partly Cloudy
5:51 PM 78.1 °F - 61.0 °F 56% 29.96 in 10.0 mi ESE 8.1 mph - N/A   Scattered Clouds
6:51 PM 78.1 °F - 61.0 °F 56% 29.95 in 10.0 mi SE 4.6 mph - N/A   Overcast
7:51 PM 73.9 °F - 61.0 °F 64% 29.96 in 10.0 mi SSE 3.5 mph - N/A   Partly Cloudy
8:51 PM 71.1 °F - 62.1 °F 73% 29.96 in 10.0 mi SE 3.5 mph - N/A   Mostly Cloudy
9:51 PM 71.1 °F - 62.1 °F 73% 29.97 in 10.0 mi SE 5.8 mph - N/A   Clear
10:51 PM 70.0 °F - 62.1 °F 76% 29.96 in 9.0 mi SSE 4.6 mph - N/A   Clear
11:51 PM 69.1 °F - 62.1 °F 78% 29.95 in 10.0 mi SSE 8.1 mph - N/A   Clear